Main page
METAR-TAF:

METAR-TAF

Airports :

Sirri, Iran

Sirri Island Airport

latitude: 25-54-34N, longitude: 054-32-22E, elevation: 13 m

Current weather observation

The report was made 2 hours and 13 minutes ago, at 15:00 UTC
Wind 10 kt from the West
Temperature 34°C
Humidity 56%
Pressure 997 hPa
Visibility: 8000 m

METAR: OIBS 231500Z 27010KT 8000 NSC 34/24 Q0997

Time: 21:43 (17:13 UTC)


TAF: missing

Weather observations and forecasts of more than 4000 airports (METAR and TAF reports).

The available stations are represented by yellow and red dots on the map.

Hover mouse over dot to see the name of the station.

Then click to see weather observations and forecasts.

To change the map : click on the green buttons with a black cross to zoom in, on the green button with a dash to zoom out, or on the green arrows for adjacent maps.


METAR-TAF: